| time (UTC) | temp F | wind direction | speed MPH | gust MPH | rain 1hr in | rain 24hr in | rain mn in | humidity % | barometer mb |
| 20260510203518 | 75 | 296 | 3.0 | 10.0 | 0.00 | 0.00 | 0.00 | 41 | 1016.7 |
| 20260510202504 | 75 | 311 | 8.0 | 14.0 | 0.00 | 0.00 | 0.00 | 39 | 1016.9 |
| 20260510201514 | 75 | 313 | 9.0 | 13.0 | 0.00 | 0.00 | 0.00 | 38 | 1016.9 |
| 20260510200502 | 75 | 355 | 4.0 | 13.0 | 0.00 | 0.00 | 0.00 | 40 | 1016.9 |
| 20260510195514 | 76 | 279 | 9.0 | 15.0 | 0.00 | 0.00 | 0.00 | 39 | 1017.0 |
| 20260510194516 | 76 | 9 | 3.0 | 10.0 | 0.00 | 0.00 | 0.00 | 39 | 1017.0 |
| 20260510193501 | 76 | 298 | 8.0 | 13.0 | 0.00 | 0.00 | 0.00 | 37 | 1017.2 |
| 20260510192529 | 76 | 267 | 11.0 | 16.0 | 0.00 | 0.00 | 0.00 | 35 | 1017.2 |
| 20260510191512 | 76 | 290 | 4.0 | 13.0 | 0.00 | 0.00 | 0.00 | 38 | 1017.2 |
| 20260510190516 | 76 | 276 | 7.0 | 14.0 | 0.00 | 0.00 | 0.00 | 42 | 1017.3 |
| 20260510185523 | 74 | 290 | 9.0 | 11.0 | 0.00 | 0.00 | 0.00 | 39 | 1017.4 |
| 20260510184528 | 75 | 282 | 8.0 | 13.0 | 0.00 | 0.00 | 0.00 | 38 | 1017.4 |
| 20260510183514 | 75 | 314 | 8.0 | 14.0 | 0.00 | 0.00 | 0.00 | 39 | 1017.3 |
| 20260510182500 | 76 | 216 | 8.0 | 14.0 | 0.00 | 0.00 | 0.00 | 40 | 1017.3 |
| 20260510181502 | 75 | 223 | 4.0 | 10.0 | 0.00 | 0.00 | 0.00 | 44 | 1017.5 |
| 20260510180510 | 75 | 246 | 3.0 | 11.0 | 0.00 | 0.00 | 0.00 | 43 | 1017.6 |
| 20260510175501 | 73 | 275 | 6.0 | 10.0 | 0.00 | 0.00 | 0.00 | 43 | 1017.5 |
| 20260510174505 | 74 | 209 | 5.0 | 12.0 | 0.00 | 0.00 | 0.00 | 40 | 1017.7 |
| 20260510173513 | 75 | 309 | 4.0 | 16.0 | 0.00 | 0.00 | 0.00 | 42 | 1017.7 |
| 20260510172459 | 73 | 241 | 10.0 | 15.0 | 0.00 | 0.00 | 0.00 | 44 | 1017.8 |
| 20260510171502 | 73 | 281 | 7.0 | 14.0 | 0.00 | 0.00 | 0.00 | 41 | 1018.1 |
| 20260510170509 | 73 | 265 | 8.0 | 15.0 | 0.00 | 0.00 | 0.00 | 43 | 1018.0 |
| 20260510165454 | 72 | 17 | 5.0 | 13.0 | 0.00 | 0.00 | 0.00 | 42 | 1018.1 |
| 20260510164505 | 72 | 217 | 5.0 | 9.0 | 0.00 | 0.00 | 0.00 | 46 | 1018.0 |
| 20260510163532 | 72 | 262 | 4.0 | 12.0 | 0.00 | 0.00 | 0.00 | 46 | 1018.1 |
| 20260510162459 | 72 | 274 | 6.0 | 10.0 | 0.00 | 0.00 | 0.00 | 46 | 1018.2 |
| 20260510161507 | 72 | 282 | 4.0 | 13.0 | 0.00 | 0.00 | 0.00 | 43 | 1018.3 |
| 20260510160453 | 71 | 309 | 3.0 | 10.0 | 0.00 | 0.00 | 0.00 | 47 | 1018.2 |
| 20260510155503 | 71 | 271 | 3.0 | 8.0 | 0.00 | 0.00 | 0.00 | 53 | 1018.2 |
| 20260510154507 | 70 | 275 | 4.0 | 15.0 | 0.00 | 0.00 | 0.00 | 51 | 1018.3 |
| 20260510153459 | 70 | 309 | 7.0 | 11.0 | 0.00 | 0.00 | 0.00 | 51 | 1018.4 |
| 20260510152507 | 70 | 15 | 5.0 | 9.0 | 0.00 | 0.00 | 0.00 | 50 | 1018.5 |
| 20260510151516 | 70 | 342 | 4.0 | 10.0 | 0.00 | 0.00 | 0.00 | 53 | 1018.5 |
| 20260510150500 | 69 | 311 | 6.0 | 10.0 | 0.00 | 0.00 | 0.00 | 53 | 1018.6 |
| 20260510145505 | 68 | 338 | 6.0 | 10.0 | 0.00 | 0.00 | 0.00 | 52 | 1018.5 |
| 20260510144510 | 68 | 293 | 4.0 | 15.0 | 0.00 | 0.00 | 0.00 | 50 | 1018.5 |
| 20260510143458 | 68 | 298 | 5.0 | 13.0 | 0.00 | 0.00 | 0.00 | 51 | 1018.4 |
| 20260510142524 | 68 | 282 | 6.0 | 11.0 | 0.00 | 0.00 | 0.00 | 54 | 1018.4 |
| 20260510141507 | 67 | 299 | 6.0 | 13.0 | 0.00 | 0.00 | 0.00 | 53 | 1018.4 |
| 20260510140513 | 67 | 289 | 4.0 | 13.0 | 0.00 | 0.00 | 0.00 | 56 | 1018.5 |
| 20260510135457 | 66 | 304 | 8.0 | 11.0 | 0.00 | 0.00 | 0.00 | 57 | 1018.5 |
| 20260510134502 | 65 | 291 | 7.0 | 11.0 | 0.00 | 0.00 | 0.00 | 57 | 1018.6 |
| 20260510133509 | 65 | 322 | 6.0 | 10.0 | 0.00 | 0.00 | 0.00 | 58 | 1017.6 |
| 20260510132457 | 64 | 336 | 8.0 | 11.0 | 0.00 | 0.00 | 0.00 | 60 | 1017.5 |
| 20260510131526 | 63 | 276 | 4.0 | 8.0 | 0.00 | 0.00 | 0.00 | 66 | 1017.6 |
| 20260510130515 | 62 | 284 | 4.0 | 8.0 | 0.00 | 0.00 | 0.00 | 68 | 1017.5 |
| 20260510125501 | 61 | 280 | 5.0 | 10.0 | 0.00 | 0.00 | 0.00 | 69 | 1017.5 |
| 20260510124507 | 60 | 288 | 6.0 | 9.0 | 0.00 | 0.00 | 0.00 | 70 | 1017.3 |
| 20260510123516 | 60 | 269 | 7.0 | 10.0 | 0.00 | 0.00 | 0.00 | 71 | 1017.2 |
| 20260510122504 | 59 | 281 | 5.0 | 11.0 | 0.00 | 0.00 | 0.00 | 73 | 1017.0 |
| 20260510121454 | 58 | 285 | 7.0 | 10.0 | 0.00 | 0.00 | 0.00 | 74 | 1017.0 |
| 20260510120502 | 58 | 288 | 4.0 | 11.0 | 0.00 | 0.00 | 0.00 | 76 | 1016.9 |
| 20260510115455 | 57 | 325 | 6.0 | 10.0 | 0.00 | 0.00 | 0.00 | 77 | 1016.8 |
| 20260510114504 | 57 | 280 | 6.0 | 10.0 | 0.00 | 0.00 | 0.00 | 77 | 1016.7 |
| 20260510113509 | 56 | 294 | 6.0 | 11.0 | 0.00 | 0.00 | 0.00 | 78 | 1016.4 |
| 20260510112516 | 55 | 298 | 6.0 | 9.0 | 0.00 | 0.00 | 0.00 | 80 | 1016.3 |
| 20260510111504 | 55 | 303 | 7.0 | 11.0 | 0.00 | 0.00 | 0.00 | 81 | 1016.0 |
| 20260510110515 | 54 | 308 | 7.0 | 13.0 | 0.00 | 0.00 | 0.00 | 83 | 1015.9 |
| 20260510105503 | 53 | 305 | 6.0 | 12.0 | 0.00 | 0.00 | 0.00 | 84 | 1015.7 |
| 20260510104512 | 53 | 305 | 7.0 | 11.0 | 0.00 | 0.00 | 0.00 | 85 | 1015.7 |
| 20260510103457 | 52 | 299 | 6.0 | 9.0 | 0.00 | 0.00 | 0.00 | 85 | 1015.6 |
| 20260510102503 | 52 | 296 | 5.0 | 10.0 | 0.00 | 0.00 | 0.00 | 85 | 1015.4 |
| 20260510101510 | 52 | 305 | 5.0 | 10.0 | 0.00 | 0.00 | 0.00 | 86 | 1015.2 |
| 20260510100457 | 52 | 294 | 5.0 | 10.0 | 0.00 | 0.00 | 0.00 | 86 | 1015.0 |
| 20260510095527 | 52 | 294 | 5.0 | 9.0 | 0.00 | 0.00 | 0.00 | 85 | 1015.0 |
| 20260510094512 | 52 | 300 | 6.0 | 10.0 | 0.00 | 0.00 | 0.00 | 85 | 1015.0 |
| 20260510093502 | 53 | 326 | 6.0 | 9.0 | 0.00 | 0.00 | 0.00 | 85 | 1015.0 |
| 20260510092510 | 52 | 296 | 4.0 | 6.0 | 0.00 | 0.00 | 0.00 | 86 | 1014.9 |
| 20260510091518 | 52 | 309 | 5.0 | 7.0 | 0.00 | 0.00 | 0.00 | 85 | 1014.8 |
| 20260510090503 | 52 | 288 | 3.0 | 5.0 | 0.00 | 0.00 | 0.00 | 84 | 1014.6 |
| 20260510085532 | 53 | 286 | 4.0 | 7.0 | 0.00 | 0.00 | 0.00 | 84 | 1014.5 |
| 20260510084458 | 53 | 273 | 4.0 | 5.0 | 0.00 | 0.00 | 0.00 | 84 | 1014.5 |
| 20260510083509 | 53 | 275 | 3.0 | 4.0 | 0.00 | 0.00 | 0.00 | 83 | 1014.4 |
| 20260510082518 | 54 | 282 | 2.0 | 7.0 | 0.00 | 0.00 | 0.00 | 82 | 1014.3 |
| 20260510081504 | 54 | 282 | 5.0 | 9.0 | 0.00 | 0.00 | 0.00 | 82 | 1014.1 |
| 20260510080510 | 54 | 302 | 8.0 | 10.0 | 0.00 | 0.00 | 0.00 | 83 | 1014.1 |
| 20260510075516 | 54 | 307 | 6.0 | 9.0 | 0.00 | 0.00 | 0.00 | 82 | 1014.0 |
| 20260510074524 | 54 | 298 | 6.0 | 7.0 | 0.00 | 0.00 | 0.00 | 82 | 1014.1 |
| 20260510073513 | 54 | 284 | 3.0 | 4.0 | 0.00 | 0.00 | 0.00 | 82 | 1014.1 |
| 20260510072500 | 54 | 283 | 3.0 | 4.0 | 0.00 | 0.00 | 0.00 | 82 | 1014.2 |
| 20260510071506 | 54 | 281 | 2.0 | 5.0 | 0.00 | 0.00 | 0.00 | 82 | 1014.1 |
| 20260510070538 | 54 | 284 | 3.0 | 6.0 | 0.00 | 0.00 | 0.00 | 80 | 1014.1 |
| 20260510065503 | 55 | 281 | 3.0 | 8.0 | 0.00 | 0.00 | 0.00 | 80 | 1014.2 |
| 20260510064513 | 54 | 281 | 4.0 | 7.0 | 0.00 | 0.00 | 0.00 | 81 | 1014.2 |
| 20260510063500 | 53 | 292 | 4.0 | 6.0 | 0.00 | 0.00 | 0.00 | 83 | 1014.3 |
| 20260510062506 | 53 | 288 | 3.0 | 5.0 | 0.00 | 0.00 | 0.00 | 82 | 1014.3 |
| 20260510061454 | 52 | 288 | 3.0 | 5.0 | 0.00 | 0.00 | 0.00 | 82 | 1014.5 |
| 20260510060522 | 53 | 297 | 3.0 | 5.0 | 0.00 | 0.00 | 0.00 | 82 | 1014.5 |
| 20260510055506 | 53 | 302 | 4.0 | 5.0 | 0.00 | 0.00 | 0.00 | 81 | 1014.5 |
| 20260510054515 | 53 | 275 | 2.0 | 4.0 | 0.00 | 0.00 | 0.00 | 81 | 1014.5 |
| 20260510053502 | 53 | 274 | 0.0 | 0.0 | 0.00 | 0.00 | 0.00 | 81 | 1014.4 |
| 20260510052506 | 54 | 274 | 0.0 | 2.0 | 0.00 | 0.00 | 0.00 | 79 | 1014.4 |
| 20260510051513 | 55 | 279 | 2.0 | 5.0 | 0.00 | 0.00 | 0.00 | 77 | 1014.4 |
| 20260510050501 | 55 | 279 | 4.0 | 7.0 | 0.00 | 0.00 | 0.00 | 78 | 1014.4 |
| 20260510045507 | 53 | 265 | 5.0 | 7.0 | 0.00 | 0.00 | 0.00 | 80 | 1014.4 |
| 20260510044514 | 55 | 255 | 3.0 | 6.0 | 0.00 | 0.00 | 0.00 | 77 | 1014.3 |
| 20260510043503 | 54 | 263 | 4.0 | 6.0 | 0.00 | 0.00 | 0.00 | 78 | 1014.3 |
| 20260510042455 | 57 | 267 | 2.0 | 3.0 | 0.00 | 0.00 | 0.00 | 73 | 1014.3 |
| 20260510041504 | 57 | 281 | 1.0 | 5.0 | 0.00 | 0.00 | 0.00 | 73 | 1014.3 |
| 20260510040509 | 57 | 283 | 3.0 | 7.0 | 0.00 | 0.00 | 0.00 | 72 | 1014.3 |
| 20260510035500 | 57 | 280 | 4.0 | 7.0 | 0.00 | 0.00 | 0.00 | 73 | 1014.3 |
| 20260510034524 | 57 | 284 | 3.0 | 5.0 | 0.00 | 0.00 | 0.00 | 74 | 1014.5 |
| 20260510033511 | 56 | 286 | 3.0 | 6.0 | 0.00 | 0.00 | 0.00 | 75 | 1014.5 |
| 20260510032502 | 55 | 283 | 3.0 | 4.0 | 0.00 | 0.00 | 0.00 | 76 | 1014.5 |
| 20260510031511 | 57 | 284 | 3.0 | 5.0 | 0.00 | 0.00 | 0.00 | 72 | 1014.3 |
| 20260510030457 | 57 | 285 | 2.0 | 4.0 | 0.00 | 0.00 | 0.00 | 72 | 1014.3 |
| 20260510025502 | 57 | 285 | 2.0 | 4.0 | 0.00 | 0.00 | 0.00 | 73 | 1014.3 |
| 20260510024531 | 55 | 286 | 4.0 | 5.0 | 0.00 | 0.00 | 0.00 | 75 | 1014.1 |
| 20260510023459 | 56 | 287 | 2.0 | 4.0 | 0.00 | 0.00 | 0.00 | 74 | 1014.1 |
| 20260510022505 | 56 | 288 | 2.0 | 5.0 | 0.00 | 0.00 | 0.00 | 73 | 1013.9 |
| 20260510021532 | 58 | 305 | 3.0 | 4.0 | 0.00 | 0.00 | 0.00 | 70 | 1013.8 |
| 20260510020500 | 57 | 305 | 0.0 | 0.0 | 0.00 | 0.00 | 0.00 | 72 | 1013.8 |
| 20260510015512 | 56 | 305 | 0.0 | 0.0 | 0.00 | 0.00 | 0.00 | 72 | 1013.7 |
| 20260510014500 | 57 | 305 | 2.0 | 4.0 | 0.00 | 0.00 | 0.00 | 72 | 1013.6 |
| 20260510013504 | 59 | 305 | 4.0 | 5.0 | 0.00 | 0.00 | 0.00 | 68 | 1013.5 |
| 20260510012512 | 61 | 309 | 2.0 | 3.0 | 0.00 | 0.00 | 0.00 | 63 | 1013.1 |
| 20260510011500 | 61 | 309 | 1.0 | 2.0 | 0.00 | 0.00 | 0.00 | 63 | 1012.9 |
| 20260510010505 | 61 | 309 | 0.0 | 3.0 | 0.00 | 0.00 | 0.00 | 62 | 1012.7 |
| 20260510005512 | 61 | 309 | 1.0 | 3.0 | 0.00 | 0.00 | 0.00 | 61 | 1012.6 |
| 20260510004520 | 62 | 309 | 2.0 | 3.0 | 0.00 | 0.00 | 0.00 | 60 | 1012.4 |
| 20260510003507 | 63 | 309 | 0.0 | 6.0 | 0.00 | 0.00 | 0.00 | 60 | 1012.2 |
| 20260510002515 | 63 | 292 | 1.0 | 6.0 | 0.00 | 0.00 | 0.00 | 59 | 1012.1 |
| 20260510001505 | 64 | 294 | 3.0 | 6.0 | 0.00 | 0.00 | 0.00 | 57 | 1012.0 |
| 20260510000513 | 64 | 286 | 3.0 | 6.0 | 0.00 | 0.00 | 0.00 | 56 | 1012.1 |
| 20260509235459 | 65 | 288 | 6.0 | 9.0 | 0.00 | 0.00 | 0.00 | 55 | 1012.1 |
| 20260509234531 | 65 | 265 | 6.0 | 11.0 | 0.00 | 0.00 | 0.00 | 54 | 1012.0 |
| 20260509233459 | 66 | 275 | 9.0 | 13.0 | 0.00 | 0.00 | 0.00 | 53 | 1012.0 |
| 20260509232511 | 66 | 259 | 10.0 | 18.0 | 0.00 | 0.00 | 0.00 | 52 | 1011.9 |
| 20260509231459 | 67 | 283 | 9.0 | 16.0 | 0.00 | 0.00 | 0.00 | 54 | 1012.0 |
| 20260509230525 | 68 | 292 | 6.0 | 15.0 | 0.00 | 0.00 | 0.00 | 53 | 1011.8 |
| 20260509225510 | 68 | 274 | 5.0 | 14.0 | 0.00 | 0.00 | 0.00 | 55 | 1011.5 |
| 20260509224459 | 68 | 267 | 7.0 | 15.0 | 0.00 | 0.00 | 0.00 | 53 | 1011.5 |
| 20260509223506 | 68 | 289 | 9.0 | 17.0 | 0.00 | 0.00 | 0.00 | 52 | 1011.4 |
| 20260509222514 | 69 | 302 | 8.0 | 16.0 | 0.00 | 0.00 | 0.00 | 52 | 1011.5 |
| 20260509221459 | 68 | 284 | 10.0 | 18.0 | 0.00 | 0.00 | 0.00 | 53 | 1011.4 |
| 20260509220508 | 69 | 344 | 8.0 | 19.0 | 0.00 | 0.00 | 0.00 | 53 | 1011.4 |
| 20260509215516 | 69 | 259 | 8.0 | 17.0 | 0.00 | 0.00 | 0.00 | 54 | 1011.5 |
| 20260509214502 | 69 | 277 | 10.0 | 17.0 | 0.00 | 0.00 | 0.00 | 53 | 1011.5 |
| 20260509213529 | 69 | 305 | 9.0 | 18.0 | 0.00 | 0.00 | 0.00 | 54 | 1011.3 |
| 20260509212513 | 69 | 314 | 6.0 | 19.0 | 0.00 | 0.00 | 0.00 | 54 | 1011.1 |
| 20260509211500 | 68 | 329 | 12.0 | 20.0 | 0.00 | 0.00 | 0.00 | 54 | 1011.1 |
| 20260509210505 | 69 | 263 | 8.0 | 15.0 | 0.00 | 0.00 | 0.00 | 56 | 1011.0 |
| 20260509205514 | 68 | 221 | 6.0 | 9.0 | 0.00 | 0.00 | 0.00 | 61 | 1011.1 |
| 20260509204502 | 68 | 292 | 4.0 | 9.0 | 0.00 | 0.00 | 0.00 | 60 | 1010.8 |